Wind_Speed
20 18 20 22 22 20 17 15 14 14 12 12 16 18 20 21 22 23 22 20 19 18 18 17 16 16 16 16 15 14 12 11 10 12 13 13 11 10 10 9 9 8 7 6 5 5 4 2 1 1 2 4 5 6 7 8 8 7 7 7 7 7 7
26 20 20 23 22 19 18 17 15 14 14 14 17 19 19 21 22 23 23 22 22 21 20 19 18 17 17 16 15 13 12 11 11 12 14 13 10 9 10 9 8 7 6 6 4 4 3 2 2 1 2 3 5 6 7 8 8 9 9 9 8 8 8
25 19 19 22 20 17 17 18 16 15 15 15 17 18 19 20 23 24 24 24 24 23 22 21 20 19 17 16 14 13 12 12 11 13 14 13 10 9 9 9 8 7 6 6 5 4 4 4 3 3 3 4 5 7 8 8 9 9 9 10 10 9 9
20 18 18 19 18 16 16 18 18 16 15 16 17 19 20 22 24 25 24 24 23 22 21 20 20 19 17 16 14 13 13 12 12 13 14 12 10 8 9 9 9 8 7 6 6 5 5 5 5 6 5 5 6 7 9 9 9 10 10 11 11 11 11
19 20 21 20 18 17 17 19 19 17 16 16 18 20 21 23 25 24 23 23 22 21 21 21 20 19 17 15 14 13 12 12 13 13 14 12 9 9 9 10 10 9 8 8 7 7 7 7 8 9 9 9 8 9 10 10 11 11 12 12 12 12 12
20 20 20 21 20 18 17 18 18 16 16 17 18 20 22 23 24 23 23 22 21 21 20 19 17 16 15 14 13 12 12 12 13 13 14 12 11 10 10 10 10 9 9 9 9 9 9 10 11 11 12 12 12 11 11 12 12 12 13 13 13 13 13
21 18 17 18 19 18 17 18 18 17 18 19 20 21 21 22 23 23 22 21 21 20 18 16 15 13 13 12 12 12 12 12 13 13 13 13 12 12 12 11 11 11 11 10 11 11 12 12 13 13 13 14 15 14 14 14 14 14 14 14 14 14 15
22 18 16 17 18 18 18 19 19 19 18 19 20 19 20 22 22 21 21 21 20 19 16 15 14 13 13 12 12 12 12 12 12 13 13 13 13 13 13 12 12 12 12 12 12 12 13 13 13 14 13 14 15 16 16 15 15 15 15 16 16 16 16
21 18 16 17 19 20 20 19 19 18 17 17 17 18 21 22 22 21 21 21 19 18 16 15 14 14 13 13 13 13 13 13 14 14 14 14 13 13 13 14 14 13 13 13 13 13 12 13 13 13 13 13 13 14 16 16 16 16 16 16 17 17 17
21 19 18 19 20 22 22 20 18 16 14 14 14 16 19 21 22 22 21 20 19 18 18 16 15 15 14 14 14 13 13 14 14 14 14 13 13 13 14 14 14 13 13 14 14 13 13 13 13 13 14 14 14 13 14 16 17 17 16 16 17 17 17
20 20 20 20 20 24 24 20 16 14 13 12 12 13 15 16 19 21 21 20 20 20 18 17 16 16 15 15 14 13 13 13 13 13 13 13 13 14 13 13 13 13 14 14 14 14 15 14 14 14 14 15 15 15 14 14 16 17 17 16 16 17 18
21 20 19 18 19 22 22 18 16 15 13 12 12 13 13 13 16 19 20 20 20 19 18 17 16 15 15 14 14 13 13 13 13 13 14 14 14 13 13 13 13 13 14 15 15 15 15 15 15 15 15 15 16 16 16 15 15 16 17 17 16 17 18
21 20 18 13 16 22 22 19 18 16 15 15 14 13 12 12 13 16 18 18 19 18 17 16 15 14 14 14 14 14 14 14 14 14 14 14 14 14 13 13 13 14 14 15 15 15 15 15 15 15 16 16 15 15 16 16 15 15 16 17 16 16 17
19 21 19 11 12 21 24 21 19 17 17 17 17 15 14 13 13 14 15 16 16 16 15 14 14 14 14 14 14 14 15 15 15 15 15 14 14 14 14 14 14 14 15 15 14 14 14 15 15 15 16 16 15 14 14 15 15 14 15 15 16 16 17
21 21 20 14 9 15 19 19 18 17 16 16 16 16 15 15 14 13 12 12 12 12 12 12 12 12 13 14 14 14 15 16 16 16 15 15 14 14 15 15 15 15 15 14 14 14 14 14 15 15 16 15 14 14 13 13 14 14 13 13 14 14 16
24 23 22 17 11 9 12 14 16 16 15 15 14 14 14 15 15 12 11 11 9 9 9 8 8 8 9 11 13 14 16 16 16 16 16 15 15 16 17 17 16 15 14 14 15 14 14 14 14 15 15 14 13 13 13 13 13 12 12 11 11 12 13
26 25 23 19 15 11 9 10 13 14 14 15 14 13 13 15 15 14 14 12 11 10 9 7 6 5 7 9 11 14 15 16 17 17 17 17 18 18 18 18 17 16 15 15 15 15 14 14 13 14 14 14 13 12 12 12 11 10 10 10 10 10 10
25 25 23 20 18 15 12 11 12 14 16 16 16 15 14 15 16 16 15 14 13 12 11 9 6 5 7 8 11 13 14 16 17 18 18 19 19 20 20 19 18 17 16 16 16 15 15 14 13 13 13 13 12 11 10 10 9 9 9 9 8 8 8
23 24 23 22 21 20 18 16 15 17 19 18 18 17 15 16 16 15 15 15 14 14 12 10 8 7 7 8 10 12 13 15 17 18 19 20 20 21 21 20 18 17 16 16 16 15 15 14 13 12 11 11 11 9 9 8 8 8 8 8 7 7 7
22 23 23 23 22 21 21 21 20 19 20 19 19 19 18 18 17 16 16 15 14 14 12 11 10 9 9 10 10 12 14 15 16 17 19 20 21 22 21 20 18 16 16 16 15 14 14 13 13 11 9 9 9 8 8 7 7 8 8 8 8 8 8
20 22 23 22 21 19 19 19 19 18 18 18 18 19 19 19 18 18 17 16 15 14 13 13 12 11 12 13 12 12 14 15 16 17 18 19 20 20 19 18 17 15 15 15 15 14 13 12 11 10 9 9 8 8 7 7 7 8 8 9 10 10 10
19 20 21 20 20 19 18 18 17 18 19 20 20 20 20 19 20 19 19 18 17 16 15 15 14 13 14 16 15 14 14 14 16 18 19 19 19 18 17 17 16 15 15 15 15 14 12 11 11 10 9 9 8 7 7 8 8 9 10 11 12 13 13
19 19 19 18 19 18 18 18 17 18 20 20 20 21 21 20 20 20 20 20 19 18 17 16 15 15 16 18 17 16 16 16 16 17 19 20 19 17 17 17 17 17 16 15 14 13 12 12 11 10 9 8 8 7 8 9 9 10 11 12 14 16 17
20 20 20 19 19 18 18 18 17 18 19 19 19 19 20 20 20 20 20 20 20 20 19 18 17 17 18 19 20 19 19 19 17 16 17 19 20 18 17 17 17 17 16 14 13 13 12 12 11 10 9 8 9 9 10 11 12 13 13 15 17 18 19
24 24 23 22 21 18 15 15 15 16 16 16 17 18 18 19 20 20 20 20 21 21 20 19 20 20 20 21 21 21 21 21 19 17 16 18 20 20 19 18 17 17 16 14 13 12 13 12 10 9 9 9 10 11 12 13 15 16 17 18 20 21 22
29 27 26 25 22 18 15 14 13 14 14 14 16 18 18 20 21 21 21 21 21 20 20 21 23 22 22 22 22 22 22 21 21 19 18 17 19 21 20 19 18 16 15 14 13 13 13 11 10 9 10 11 12 13 14 15 17 18 20 22 23 24 25
33 31 30 27 23 19 17 16 15 15 16 16 17 19 20 20 21 21 22 23 22 21 22 24 25 25 25 25 24 24 23 23 22 22 20 18 19 21 21 19 18 16 15 15 15 14 13 12 11 11 12 13 15 16 17 18 19 21 23 24 25 27 28
37 35 33 29 24 22 21 19 18 18 18 18 18 19 19 19 20 21 23 23 22 23 26 27 27 27 27 27 26 25 24 24 24 23 22 20 18 20 21 19 18 17 17 16 16 15 14 14 14 15 15 17 18 19 20 22 23 25 26 26 27 28 29
37 36 35 32 27 24 22 21 21 20 19 18 19 19 18 19 19 20 22 23 24 26 28 29 29 29 29 29 29 27 26 26 25 25 24 22 20 20 22 21 20 19 18 18 18 17 17 17 18 18 19 19 20 21 22 24 25 26 26 25 26 27 28
38 37 37 35 30 27 25 24 24 24 22 21 20 20 19 19 20 21 22 22 24 27 28 29 30 31 32 32 31 30 29 28 27 26 26 24 22 21 23 22 22 21 20 20 19 18 18 19 19 20 20 20 21 21 22 24 25 26 25 25 27 28 29
39 39 39 38 35 32 30 28 26 26 25 24 22 22 22 21 21 21 21 21 23 25 26 27 29 30 32 33 33 32 31 30 28 27 27 26 24 22 23 23 23 23 22 21 20 20 20 20 20 21 21 22 23 23 25 27 29 28 27 27 29 30 31
39 39 38 38 37 36 34 32 29 28 27 26 25 24 24 23 23 22 22 22 23 24 24 25 26 27 30 32 33 34 33 32 31 30 30 29 26 24 24 24 24 24 24 23 22 22 22 22 22 22 23 24 25 26 29 31 31 30 30 30 31 32 33
40 38 38 38 38 38 37 36 34 31 29 28 28 27 26 25 25 24 24 24 24 24 24 24 24 25 28 30 32 34 34 34 33 32 32 30 28 26 26 27 27 27 26 25 25 25 25 24 24 24 25 26 27 30 32 33 33 33 33 34 35 35 36
40 40 39 40 40 41 40 39 37 35 32 31 30 29 28 28 27 26 26 27 26 26 26 25 24 25 27 28 30 32 34 35 35 34 33 32 29 28 28 30 30 29 27 28 28 27 27 27 27 27 27 29 31 32 33 34 34 35 36 37 38 39 39
41 42 42 41 42 43 42 41 40 38 35 33 32 31 30 29 28 28 28 28 28 27 27 26 26 26 27 28 29 30 32 34 34 33 34 34 31 30 30 31 31 30 29 30 30 29 29 29 29 30 31 32 34 35 35 36 36 37 38 40 41 42 42
42 44 43 42 42 43 42 42 42 40 38 35 34 33 32 31 30 29 30 29 29 29 28 28 27 27 27 28 29 30 31 32 31 32 34 34 32 32 33 33 32 32 31 31 31 31 31 31 32 33 34 35 36 36 37 38 39 40 41 42 43 45 46
43 43 43 42 43 44 43 42 42 41 39 37 36 35 34 33 31 31 31 31 31 31 30 29 28 28 28 28 29 30 31 31 31 32 34 34 33 34 35 35 34 34 34 33 33 33 33 34 35 36 37 37 38 39 40 41 42 43 44 45 47 48 49
43 43 42 42 43 44 44 43 42 41 40 39 38 37 36 35 34 33 33 34 34 33 32 31 30 29 29 29 30 30 31 31 32 34 35 36 36 37 36 36 36 35 35 35 35 35 36 37 38 38 38 39 40 41 42 43 44 46 47 48 50 51 52
Wind_Direction
240 249 258 256 250 250 254 251 249 252 249 236 225 222 221 218 214 212 209 205 198 192 189 188 192 195 199 202 205 207 207 203 197 194 200 207 209 204 196 190 189 187 183 176 164 146 143 158 142 50 8 3 8 14 18 19 17 10 359 349 343 341 340
244 246 252 254 252 253 255 248 244 245 240 232 225 222 220 218 216 215 212 207 200 195 190 187 190 196 201 203 203 203 203 200 195 195 202 210 213 206 197 192 190 187 183 181 171 158 166 201 235 270 312 324 336 347 355 358 360 360 356 349 341 334 331
231 234 247 252 250 251 252 246 241 240 236 231 226 223 220 217 217 218 217 214 208 201 194 188 189 195 199 201 200 200 199 197 194 194 202 211 212 203 195 193 192 191 189 188 186 186 196 222 249 267 284 299 310 320 329 335 338 342 345 343 340 333 326
223 225 234 241 245 244 238 235 234 234 232 226 223 224 222 219 219 219 219 218 215 208 200 194 193 195 197 197 196 196 195 194 193 196 204 211 209 198 193 194 197 199 200 201 202 208 220 236 253 266 274 281 288 296 306 313 317 323 328 331 332 331 326
225 216 218 231 246 241 227 226 228 228 227 222 220 222 222 222 222 220 219 219 217 212 205 200 197 196 195 194 194 193 193 193 194 197 204 209 206 200 198 201 203 206 208 211 217 226 235 245 255 264 270 275 278 281 287 294 298 303 310 316 320 323 324
229 220 219 232 240 234 225 225 226 225 228 228 224 221 220 222 222 219 218 217 215 212 207 203 201 199 196 194 193 191 191 193 195 198 204 207 207 209 209 209 210 214 217 221 229 237 243 251 256 262 269 275 278 278 279 282 286 289 293 299 305 311 317
229 221 215 224 228 223 221 222 222 224 229 232 230 223 219 220 220 218 217 216 215 212 207 203 200 198 197 195 192 191 191 194 197 201 204 207 212 217 220 221 222 225 228 230 236 242 248 252 256 260 265 271 277 280 280 279 280 281 282 284 289 297 305
227 219 209 214 219 216 214 216 221 225 227 231 233 227 222 221 219 217 216 216 216 212 206 202 197 195 195 194 194 194 195 196 199 202 206 210 216 221 226 230 232 234 237 240 244 247 251 256 261 264 265 267 271 277 281 281 280 279 277 277 279 285 292
231 226 214 211 214 214 213 215 221 224 226 230 233 229 225 221 218 217 217 216 215 212 206 199 196 195 197 199 201 201 201 200 199 202 205 210 215 221 226 231 236 241 245 249 253 255 258 261 266 271 274 274 271 272 276 278 279 278 277 276 277 279 283
237 232 218 214 216 215 214 213 215 219 222 227 231 228 225 223 219 217 218 219 216 213 208 201 197 198 201 206 209 210 210 209 207 207 208 211 215 219 225 230 236 243 247 253 257 261 266 270 273 277 281 282 279 274 273 274 277 279 279 277 277 278 279
239 234 223 219 220 216 211 207 209 214 216 221 227 225 224 227 225 219 216 217 216 214 211 206 203 203 205 210 214 215 218 219 220 219 217 218 220 221 226 231 237 243 249 256 261 264 270 276 280 282 282 283 284 283 280 276 276 279 280 278 277 277 277
233 234 229 219 213 211 207 201 203 209 210 213 221 224 222 228 232 225 217 215 216 215 212 210 210 211 213 216 218 218 219 221 222 223 223 224 225 228 232 238 245 250 255 259 263 267 270 275 279 281 282 283 285 286 286 282 278 277 279 279 276 274 275
230 237 239 222 198 199 202 198 198 203 205 207 212 218 220 225 234 232 222 215 213 212 211 210 212 215 218 220 222 222 220 218 218 220 223 225 228 233 238 244 251 257 261 264 265 267 270 272 274 276 280 285 286 285 285 285 282 278 276 276 274 273 273
234 237 244 236 191 191 199 200 198 198 199 202 206 211 216 221 229 232 225 218 213 209 206 205 206 211 217 220 223 225 222 219 218 220 223 227 233 239 243 247 252 257 263 266 266 265 265 267 270 274 279 284 286 286 286 286 285 281 276 275 275 274 275
235 238 245 251 216 191 196 202 204 203 203 205 207 209 212 218 226 231 229 222 216 212 209 207 204 207 212 216 219 222 224 223 222 224 227 232 238 244 247 250 253 258 263 266 265 261 259 261 266 274 280 281 282 284 286 285 284 282 280 278 277 275 277
229 236 244 252 249 213 196 200 205 207 211 216 218 217 214 217 223 227 227 223 219 219 221 223 221 217 215 216 216 220 225 228 228 230 234 238 242 246 250 254 257 262 264 265 264 260 257 257 263 272 277 278 278 280 283 286 286 284 282 281 281 280 281
224 232 241 248 254 246 221 209 211 215 222 227 232 232 223 219 219 218 217 216 214 216 223 227 234 238 232 226 224 223 225 229 233 236 239 242 245 248 252 255 258 261 263 264 264 263 259 259 264 270 271 272 276 279 283 286 285 283 280 280 283 285 287
228 232 240 246 251 254 249 236 228 228 233 235 235 234 228 224 222 216 212 210 208 212 219 216 213 228 239 240 241 237 233 232 235 237 240 243 246 249 252 254 255 258 262 264 264 263 262 265 269 269 267 270 274 277 279 279 278 277 277 278 281 285 287
233 234 240 245 247 250 250 243 232 226 227 230 233 234 232 228 225 220 217 216 212 212 217 216 208 215 235 247 252 251 247 242 240 240 241 242 244 246 249 252 254 256 258 260 260 260 263 269 271 268 264 266 270 274 273 272 273 273 272 272 274 277 279
231 231 236 242 245 249 250 244 236 227 223 224 227 229 230 229 227 226 226 225 222 220 223 226 222 221 233 247 254 258 258 255 250 248 246 244 243 245 249 252 252 252 252 255 257 258 260 265 267 266 263 262 265 270 270 269 271 270 270 272 273 276 278
237 234 236 242 245 249 253 250 245 239 234 233 231 229 229 230 230 231 232 234 235 234 235 237 236 231 235 245 255 260 264 266 262 258 255 251 249 247 249 251 250 248 248 251 252 252 255 261 265 265 264 260 261 264 266 269 272 271 273 274 273 276 278
240 239 241 245 248 250 255 258 255 248 243 241 239 235 234 233 234 235 237 240 242 243 243 244 246 243 240 247 255 261 266 271 270 266 262 258 255 250 249 249 249 246 245 245 246 248 253 260 261 259 258 259 264 267 269 273 277 278 277 275 275 277 279
238 239 237 239 242 242 244 247 248 246 243 241 239 238 236 236 236 237 240 242 244 247 249 249 251 251 247 249 256 262 267 272 274 272 267 261 257 251 246 245 246 246 244 242 242 247 253 257 257 256 258 264 270 272 271 273 276 278 278 275 275 278 281
236 234 231 231 231 229 227 229 231 235 239 240 241 241 239 240 240 240 241 243 245 248 250 252 255 256 252 252 257 262 267 271 274 275 270 262 256 249 243 242 244 245 244 241 241 247 254 255 254 257 263 271 275 274 273 272 271 270 269 267 265 268 273
227 225 224 225 225 222 220 220 223 228 234 238 243 244 244 244 244 244 243 245 246 247 249 253 257 257 254 252 254 258 263 268 273 277 276 266 255 246 241 239 239 241 241 239 242 249 253 253 253 258 269 275 276 277 278 274 271 272 270 267 266 267 269
223 223 223 225 225 223 221 220 218 221 226 233 239 242 243 243 245 246 247 246 246 247 249 251 252 252 251 251 251 253 258 265 270 276 281 274 256 244 239 235 233 235 237 238 243 248 249 251 254 261 270 274 275 277 277 274 273 272 270 269 269 270 270
220 222 223 225 228 229 229 224 217 214 215 220 226 230 230 231 234 240 243 244 244 246 247 249 248 247 248 250 251 251 253 259 265 271 278 278 259 241 236 233 230 229 232 237 241 244 246 249 253 259 265 269 271 272 272 270 268 266 265 265 267 269 272
220 222 223 224 226 230 232 228 224 222 219 218 221 224 223 221 221 226 232 235 240 242 243 245 245 244 244 246 248 248 249 253 259 264 272 278 264 242 233 232 229 227 229 234 238 242 245 249 252 254 256 258 260 261 262 263 262 262 263 265 267 272 277
222 224 226 227 226 230 234 231 228 229 226 222 223 224 224 221 218 219 220 223 229 233 234 236 239 241 241 242 244 245 246 249 253 257 266 274 266 244 233 231 229 228 229 232 235 239 244 248 251 253 253 255 256 258 260 261 262 264 268 271 275 277 279
223 225 230 232 231 234 237 233 227 228 228 226 225 225 225 224 222 220 219 218 222 226 228 229 231 234 237 239 241 241 243 245 248 250 258 268 264 247 237 234 231 230 231 232 234 238 241 246 251 254 256 258 260 262 264 264 266 269 271 274 276 278 279
223 226 231 235 235 236 237 233 226 225 227 227 226 226 226 226 225 226 224 222 224 227 229 230 230 230 233 235 236 237 239 242 243 243 250 260 260 247 239 237 235 232 232 232 234 238 243 247 252 255 258 261 265 267 268 268 271 274 275 276 278 278 279
222 224 228 233 235 234 234 232 226 223 224 226 228 228 229 228 228 229 229 229 229 230 231 231 232 232 233 234 234 234 236 238 239 239 244 254 255 244 236 236 236 234 234 235 237 241 245 248 252 255 258 263 267 269 270 273 277 280 281 281 281 281 281
222 225 227 230 233 233 232 231 229 224 223 227 229 231 232 232 231 231 231 232 233 233 233 233 233 233 235 236 235 235 235 235 235 236 240 248 250 241 234 234 236 236 237 239 242 245 247 250 253 257 261 266 268 270 272 276 279 281 282 283 283 283 283
226 228 228 228 230 232 232 232 232 230 228 229 230 231 233 234 233 232 233 235 236 236 236 235 234 233 235 237 237 237 236 236 235 235 237 242 246 243 237 237 239 239 240 242 245 248 250 253 256 260 264 267 269 270 273 276 279 282 284 285 285 285 285
228 230 230 228 229 231 232 232 233 233 232 232 232 232 232 233 233 233 234 236 238 239 238 237 236 235 236 238 240 240 239 239 238 238 237 239 243 243 242 241 241 240 241 243 246 249 252 255 259 262 265 267 269 272 275 278 280 282 284 285 285 286 286
229 229 230 229 229 229 231 232 233 234 234 234 234 233 232 232 232 233 235 237 239 240 241 240 239 238 238 239 241 242 243 243 243 242 240 239 240 241 243 244 244 243 244 245 247 251 254 258 262 264 266 269 272 275 277 279 281 283 284 286 287 287 288
229 229 230 230 229 229 229 230 231 232 234 234 235 234 233 233 234 235 236 237 239 241 242 243 242 241 241 241 241 242 244 245 245 244 242 241 240 241 243 245 247 248 249 250 252 255 257 260 263 265 268 271 274 276 278 280 282 284 286 287 287 287 288
228 228 229 229 229 229 229 229 230 231 233 234 236 236 235 236 237 237 238 238 240 241 243 244 244 243 242 242 242 242 243 244 244 243 241 241 241 242 243 246 248 249 251 253 254 255 257 260 263 266 270 272 273 275 278 280 283 284 285 286 285 285 285
Height
5880 5882 5883 5884 5886 5888 5889 5889 5889 5890 5891 5893 5895 5896 5899 5901 5903 5904 5906 5907 5908 5909 5910 5911 5913 5915 5918 5920 5922 5925 5927 5930 5932 5934 5935 5937 5939 5940 5942 5943 5944 5946 5947 5948 5949 5950 5950 5951 5951 5952 5952 5952 5952 5952 5953 5953 5952 5952 5951 5951 5951 5951 5951
5877 5879 5881 5882 5884 5886 5887 5888 5888 5889 5890 5892 5893 5895 5897 5900 5902 5903 5905 5906 5907 5907 5908 5909 5911 5914 5916 5919 5921 5924 5927 5929 5931 5933 5935 5937 5938 5940 5941 5943 5944 5945 5947 5948 5949 5949 5950 5951 5951 5952 5952 5952 5952 5952 5953 5953 5953 5952 5952 5951 5951 5951 5951
5875 5877 5879 5881 5883 5885 5886 5886 5887 5887 5889 5890 5892 5894 5896 5898 5900 5902 5904 5905 5906 5907 5907 5908 5909 5911 5914 5917 5920 5923 5926 5928 5930 5932 5934 5936 5937 5939 5941 5942 5944 5945 5946 5947 5948 5949 5950 5950 5951 5951 5952 5952 5952 5952 5952 5952 5952 5952 5952 5951 5951 5951 5951
5873 5875 5878 5879 5881 5883 5884 5884 5885 5886 5887 5888 5890 5892 5894 5897 5899 5900 5902 5904 5906 5907 5907 5907 5908 5910 5913 5916 5919 5922 5925 5927 5929 5931 5933 5935 5937 5938 5940 5942 5943 5944 5946 5947 5948 5948 5949 5950 5950 5951 5951 5952 5952 5952 5952 5952 5952 5951 5952 5951 5951 5951 5950
5871 5874 5876 5878 5879 5880 5882 5882 5883 5885 5886 5887 5889 5890 5893 5895 5897 5899 5901 5903 5905 5907 5907 5907 5907 5909 5912 5914 5917 5920 5923 5926 5928 5930 5932 5934 5936 5938 5939 5941 5942 5943 5945 5946 5947 5948 5948 5949 5950 5950 5950 5951 5951 5951 5951 5951 5951 5951 5951 5951 5950 5950 5950
5868 5872 5874 5876 5876 5878 5879 5881 5882 5884 5885 5887 5888 5889 5892 5894 5896 5898 5900 5902 5904 5906 5906 5907 5908 5909 5911 5914 5916 5919 5922 5925 5927 5929 5931 5933 5935 5937 5938 5939 5941 5942 5944 5945 5946 5947 5947 5948 5949 5949 5949 5949 5950 5950 5950 5950 5950 5950 5950 5949 5949 5949 5949
5866 5869 5872 5873 5873 5875 5877 5878 5880 5882 5884 5885 5887 5888 5891 5893 5895 5897 5899 5901 5904 5905 5906 5906 5907 5909 5911 5913 5915 5918 5921 5923 5926 5928 5930 5932 5934 5935 5937 5938 5940 5941 5942 5943 5944 5945 5946 5947 5947 5948 5948 5948 5948 5948 5949 5949 5949 5949 5949 5948 5948 5948 5948
5862 5866 5869 5870 5871 5873 5874 5876 5878 5880 5882 5883 5885 5888 5890 5892 5894 5896 5898 5901 5903 5904 5905 5905 5906 5907 5909 5912 5914 5917 5919 5921 5924 5926 5928 5930 5932 5934 5935 5937 5938 5939 5941 5942 5943 5944 5944 5945 5945 5946 5947 5947 5947 5947 5947 5947 5947 5947 5948 5947 5947 5947 5947
5859 5863 5866 5868 5869 5871 5873 5875 5877 5879 5881 5883 5885 5887 5890 5892 5894 5896 5898 5900 5902 5903 5904 5904 5905 5906 5908 5910 5913 5915 5917 5920 5922 5924 5926 5928 5930 5932 5933 5935 5936 5938 5939 5940 5941 5942 5943 5944 5944 5944 5945 5946 5946 5946 5945 5945 5945 5946 5946 5946 5946 5946 5945
5856 5860 5863 5866 5868 5870 5872 5874 5875 5877 5880 5882 5884 5886 5889 5891 5893 5894 5896 5899 5901 5902 5902 5902 5903 5905 5907 5909 5911 5914 5916 5918 5921 5923 5924 5926 5928 5930 5931 5933 5934 5936 5937 5938 5939 5940 5941 5941 5942 5942 5943 5943 5943 5944 5944 5944 5943 5944 5944 5944 5944 5944 5944
5853 5856 5860 5863 5865 5867 5870 5872 5874 5876 5878 5880 5883 5885 5887 5889 5891 5893 5895 5897 5899 5900 5900 5901 5902 5903 5905 5908 5910 5913 5915 5917 5919 5921 5923 5924 5926 5928 5929 5931 5933 5934 5935 5936 5937 5938 5938 5939 5940 5940 5941 5941 5940 5941 5942 5942 5942 5942 5942 5942 5942 5942 5942
5850 5853 5856 5860 5863 5866 5867 5870 5873 5874 5876 5878 5881 5883 5884 5887 5889 5891 5893 5895 5897 5898 5899 5900 5901 5902 5904 5906 5909 5911 5913 5916 5918 5919 5921 5923 5924 5926 5928 5929 5931 5932 5933 5934 5935 5936 5936 5937 5937 5938 5938 5938 5938 5938 5939 5939 5940 5940 5939 5940 5940 5940 5940
5847 5849 5853 5858 5861 5864 5865 5868 5870 5871 5873 5876 5879 5881 5883 5885 5888 5890 5892 5893 5895 5896 5898 5899 5900 5901 5903 5905 5908 5910 5912 5914 5916 5917 5919 5921 5923 5925 5926 5928 5929 5930 5931 5932 5933 5934 5934 5935 5935 5936 5936 5936 5936 5936 5936 5936 5937 5937 5937 5937 5937 5938 5938
5845 5847 5850 5854 5859 5862 5863 5865 5868 5870 5872 5875 5878 5880 5882 5884 5886 5888 5890 5891 5892 5894 5896 5897 5899 5900 5902 5904 5906 5908 5910 5912 5913 5915 5917 5919 5921 5923 5924 5926 5927 5928 5929 5930 5931 5932 5932 5933 5933 5933 5934 5934 5934 5934 5934 5934 5934 5935 5935 5935 5935 5936 5936
5842 5845 5847 5851 5856 5860 5862 5864 5866 5869 5871 5874 5876 5879 5881 5883 5884 5886 5888 5890 5891 5893 5894 5896 5897 5899 5901 5903 5905 5907 5908 5910 5912 5913 5915 5917 5919 5921 5922 5924 5925 5926 5927 5928 5929 5929 5930 5931 5931 5931 5932 5932 5932 5932 5932 5932 5932 5932 5932 5933 5933 5934 5934
5841 5843 5845 5848 5852 5856 5859 5862 5864 5867 5869 5872 5874 5877 5880 5881 5883 5885 5887 5889 5890 5892 5893 5895 5896 5898 5900 5902 5904 5905 5907 5909 5910 5912 5914 5916 5917 5919 5920 5921 5923 5924 5925 5926 5926 5927 5928 5929 5929 5929 5929 5930 5930 5930 5930 5930 5930 5930 5930 5931 5931 5932 5932
5840 5841 5843 5846 5849 5852 5856 5859 5862 5864 5867 5869 5871 5874 5877 5880 5882 5884 5886 5888 5890 5891 5893 5894 5896 5897 5899 5900 5902 5904 5905 5907 5909 5910 5912 5914 5915 5916 5917 5919 5920 5922 5923 5924 5924 5925 5926 5927 5928 5928 5928 5928 5928 5928 5928 5928 5929 5929 5929 5929 5930 5930 5930
5838 5840 5842 5845 5847 5850 5853 5856 5860 5862 5865 5867 5869 5872 5874 5877 5880 5883 5885 5887 5889 5890 5892 5893 5895 5896 5898 5899 5900 5902 5904 5905 5907 5908 5910 5911 5912 5914 5915 5916 5918 5919 5920 5921 5922 5922 5923 5924 5925 5926 5926 5926 5926 5926 5927 5927 5927 5927 5927 5928 5928 5928 5929
5836 5838 5841 5843 5845 5848 5850 5854 5858 5861 5863 5865 5867 5870 5873 5875 5878 5881 5883 5885 5887 5889 5890 5892 5894 5896 5897 5898 5899 5900 5902 5903 5905 5906 5907 5909 5910 5911 5912 5914 5915 5917 5918 5919 5920 5921 5922 5922 5923 5924 5924 5924 5924 5924 5925 5925 5925 5926 5926 5926 5926 5927 5927
5833 5836 5839 5841 5844 5846 5848 5851 5855 5858 5861 5864 5866 5868 5870 5873 5876 5878 5880 5882 5884 5886 5888 5890 5892 5894 5896 5897 5898 5899 5900 5901 5903 5904 5905 5906 5907 5908 5910 5911 5913 5914 5915 5916 5918 5919 5920 5920 5921 5921 5922 5922 5922 5923 5923 5923 5924 5924 5924 5924 5925 5925 5926
5832 5834 5836 5839 5842 5844 5846 5848 5851 5854 5858 5861 5863 5866 5868 5870 5873 5875 5877 5879 5882 5884 5886 5888 5890 5892 5894 5895 5896 5898 5898 5899 5901 5902 5903 5904 5905 5906 5908 5909 5910 5911 5913 5914 5915 5916 5917 5918 5918 5919 5920 5920 5920 5921 5921 5921 5922 5922 5922 5923 5923 5923 5924
5830 5832 5834 5837 5840 5842 5844 5846 5848 5851 5854 5857 5860 5862 5865 5867 5870 5872 5874 5877 5879 5881 5884 5886 5887 5890 5892 5893 5894 5896 5897 5897 5898 5899 5900 5901 5902 5904 5905 5906 5907 5909 5910 5911 5912 5913 5914 5915 5916 5916 5917 5917 5918 5919 5919 5919 5920 5921 5921 5921 5921 5921 5922
5828 5830 5832 5834 5837 5840 5842 5844 5846 5848 5850 5853 5856 5859 5861 5864 5866 5869 5871 5874 5876 5879 5881 5883 5885 5887 5889 5890 5892 5893 5894 5895 5896 5896 5897 5898 5899 5901 5902 5903 5904 5905 5907 5908 5910 5911 5912 5912 5913 5914 5914 5915 5916 5917 5917 5918 5918 5919 5919 5919 5919 5918 5918
5825 5827 5829 5831 5834 5836 5839 5841 5843 5845 5847 5850 5853 5855 5858 5861 5863 5866 5868 5871 5873 5876 5878 5880 5882 5884 5886 5888 5889 5891 5892 5892 5893 5894 5894 5895 5896 5898 5899 5900 5901 5902 5904 5905 5907 5908 5909 5910 5911 5911 5912 5913 5914 5914 5915 5916 5917 5917 5918 5917 5917 5917 5916
5821 5824 5825 5828 5830 5833 5836 5838 5841 5843 5845 5847 5850 5852 5855 5857 5860 5862 5865 5868 5870 5872 5875 5878 5880 5882 5884 5885 5886 5888 5889 5889 5890 5891 5892 5893 5893 5894 5895 5897 5898 5899 5901 5903 5904 5905 5906 5907 5908 5909 5910 5911 5911 5912 5913 5914 5915 5915 5915 5915 5915 5915 5915
5819 5821 5823 5825 5828 5831 5833 5836 5838 5840 5843 5845 5847 5849 5852 5854 5857 5859 5862 5864 5866 5869 5872 5874 5876 5878 5880 5882 5884 5885 5886 5886 5887 5888 5889 5890 5890 5891 5892 5893 5895 5896 5898 5900 5901 5903 5904 5905 5906 5906 5907 5908 5909 5910 5911 5912 5912 5912 5912 5912 5911 5911 5911
5817 5819 5821 5824 5827 5829 5831 5833 5836 5838 5840 5842 5844 5846 5848 5850 5853 5856 5858 5860 5863 5866 5869 5870 5872 5875 5877 5879 5881 5882 5883 5884 5884 5885 5886 5887 5887 5888 5889 5890 5892 5894 5895 5897 5898 5900 5901 5902 5903 5904 5905 5906 5907 5907 5908 5908 5909 5909 5908 5908 5907 5907 5907
5814 5816 5819 5822 5825 5827 5829 5832 5834 5835 5838 5840 5842 5843 5845 5847 5849 5852 5854 5857 5860 5863 5864 5866 5868 5871 5873 5876 5877 5879 5880 5881 5882 5882 5883 5884 5885 5886 5887 5888 5889 5891 5892 5894 5895 5897 5898 5899 5900 5901 5902 5903 5904 5904 5905 5905 5904 5904 5904 5904 5904 5903 5903
5811 5814 5817 5820 5823 5825 5827 5829 5831 5833 5835 5837 5839 5841 5842 5844 5846 5849 5851 5854 5856 5858 5859 5862 5864 5867 5869 5872 5874 5876 5877 5878 5879 5880 5880 5881 5882 5883 5884 5885 5886 5888 5889 5891 5892 5894 5895 5896 5897 5898 5899 5900 5900 5901 5901 5900 5900 5900 5900 5900 5900 5900 5900
5809 5812 5814 5817 5820 5822 5824 5827 5829 5831 5833 5835 5836 5838 5840 5842 5844 5846 5848 5850 5852 5854 5855 5858 5860 5862 5865 5867 5870 5872 5874 5875 5876 5877 5877 5878 5879 5880 5881 5883 5884 5885 5886 5887 5889 5890 5892 5893 5893 5894 5895 5896 5896 5896 5896 5896 5895 5895 5896 5897 5897 5897 5897
5806 5809 5811 5813 5816 5819 5821 5824 5827 5828 5830 5832 5834 5836 5838 5839 5841 5843 5845 5848 5849 5851 5852 5854 5856 5858 5860 5863 5865 5867 5869 5871 5873 5874 5875 5875 5876 5878 5879 5880 5881 5882 5883 5884 5886 5887 5888 5889 5890 5890 5891 5891 5892 5892 5891 5890 5890 5891 5893 5894 5893 5893 5893
5802 5806 5808 5810 5813 5816 5818 5821 5824 5826 5828 5830 5831 5833 5835 5837 5838 5840 5842 5844 5846 5847 5849 5851 5853 5855 5856 5858 5860 5862 5865 5867 5869 5870 5871 5872 5873 5875 5876 5877 5878 5879 5880 5881 5882 5883 5884 5885 5886 5887 5887 5887 5887 5887 5885 5885 5886 5887 5888 5888 5888 5888 5888
5799 5802 5804 5807 5809 5812 5814 5817 5820 5823 5825 5827 5828 5830 5832 5834 5836 5838 5839 5841 5842 5844 5846 5848 5850 5851 5853 5854 5856 5858 5860 5862 5864 5866 5867 5868 5869 5871 5873 5874 5875 5876 5877 5878 5879 5879 5880 5881 5882 5882 5883 5883 5883 5882 5881 5881 5882 5882 5882 5882 5882 5882 5882
5795 5797 5799 5802 5804 5807 5810 5813 5816 5819 5822 5823 5825 5827 5829 5831 5833 5834 5836 5837 5839 5841 5842 5844 5846 5848 5849 5850 5852 5853 5855 5857 5859 5861 5862 5864 5866 5868 5870 5870 5871 5872 5874 5874 5875 5875 5876 5876 5877 5878 5878 5878 5878 5877 5877 5877 5877 5877 5877 5876 5876 5876 5875
5790 5792 5794 5798 5801 5803 5806 5809 5812 5815 5818 5820 5822 5823 5825 5827 5829 5831 5832 5834 5835 5837 5839 5841 5842 5844 5845 5847 5848 5850 5851 5852 5854 5855 5857 5860 5863 5865 5865 5866 5867 5868 5869 5870 5870 5871 5871 5871 5872 5873 5873 5873 5872 5872 5872 5872 5872 5872 5871 5871 5870 5869 5869
5785 5787 5789 5793 5796 5799 5802 5805 5808 5811 5813 5815 5818 5819 5822 5824 5826 5827 5829 5830 5832 5833 5835 5837 5838 5840 5841 5843 5845 5846 5847 5848 5850 5852 5854 5857 5859 5860 5860 5861 5863 5864 5865 5865 5866 5866 5866 5867 5867 5867 5867 5867 5867 5867 5867 5867 5867 5867 5866 5865 5864 5863 5863
5781 5782 5785 5789 5792 5795 5798 5801 5804 5807 5809 5811 5813 5815 5818 5820 5822 5823 5825 5827 5828 5830 5831 5833 5835 5836 5838 5839 5841 5842 5843 5844 5846 5848 5850 5853 5854 5855 5856 5857 5858 5859 5860 5860 5861 5861 5861 5862 5862 5862 5862 5862 5862 5862 5862 5861 5861 5860 5860 5859 5858 5858 5857
5776 5778 5781 5785 5788 5791 5794 5797 5800 5802 5805 5807 5809 5811 5814 5816 5818 5820 5821 5823 5824 5826 5828 5829 5831 5832 5834 5835 5836 5838 5839 5841 5843 5844 5846 5848 5849 5850 5851 5852 5853 5854 5855 5855 5856 5856 5856 5856 5856 5856 5856 5856 5856 5856 5856 5856 5855 5855 5854 5853 5853 5852 5851